Погода в Редрате

Великобритания     50°14′32″N   5°12′48″W
темп.,
°C
ветер,
м/с
пор.,
м/с
влажн.,
%
обл.,
%
осадки,
мм/ч
давл.,
гПа
погр.,
м
5 марта, пт
пт500:00+5в589088 0.5 1027342
03:00+5в478283 0.0 1028397
06:00+4всв598780 0.0 1029344
09:00+4в7107934 0.0 1030408
12:00+6в687118 0.0 1031763
15:00+6вюв677035 0.0 1032970
18:00+3в477549 0.0 1032363
21:00+2в358110 0.0 1033191
6 марта, сб
сб600:00+2в368124 0.0 1034168
03:00+4в367597 0.0 1033254
06:00+2всв478282 0.0 1034216
09:00+4всв457678 0.0 1034285
12:00+6вюв457161 0.1 1034959
15:00+6в457066 0.1 1033987
18:00+4в247463 0.1 1032326
21:00+2всв238063 0.0 1032216
7 марта, вс
вс700:00+1всв228379 0.0 1031100
03:00+1св128272 0.0 103097
06:00+2св228286 0.0 1029196
09:00+5св127284 0.0 1029350
12:00+7с216342 0.0 1029894
15:00+6ссз336635 0.0 1027670
18:00+3с337535 0.0 1026230
21:00+2с22800 0.0 1026234
8 марта, пн
пн800:00+2ссв11800 0.0 1026218
03:00+1зюз01810 0.0 1025218
06:00+1зюз11810 0.0 1024217
09:00+5зюз12700 0.0 1025335
12:00+7зюз22610 0.0 1025831
15:00+7зюз44675 0.0 1023883
18:00+5юз357826 0.0 1023303
21:00+4юз358189 0.0 1023293
9 марта, вт
вт900:00+5юз478494 0.0 1022267
03:00+6ююз6989100 0.3 1020523
06:00+8юз61094100 1.0 1020493
09:00+9зюз5892100 0.5 1019517
12:00+10зюз578395 0.9 1019747
15:00+10юз6988100 0.4 1017716
18:00+8юз71289100 0.5 1015652
21:00+9юз101693100 0.8 1013834